Time,TemperatureF,DewpointF,PressureIn,WindDirection,WindDirectionDegrees,WindSpeedMPH,WindSpeedGustMPH,Humidity,HourlyPrecipIn,Conditions,Clouds,dailyrainin,SoftwareType,DateUTC
2013-04-17 00:12:00,51.0,37.0,29.40,South,182,6.0,-999.0,59,0.00,,,0.00,,2013-04-17 07:12:00,
2013-04-17 00:22:00,51.0,37.0,29.40,South,182,6.0,-999.0,59,0.00,,,0.00,,2013-04-17 07:22:00,
2013-04-17 00:32:00,51.0,37.0,29.40,South,182,6.0,-999.0,59,0.00,,,0.00,,2013-04-17 07:32:00,
2013-04-17 00:42:00,51.0,37.0,29.40,South,182,6.0,-999.0,59,0.00,,,0.00,,2013-04-17 07:42:00,
2013-04-17 01:12:00,49.0,36.0,29.41,South,170,11.0,-999.0,60,0.00,,,0.00,,2013-04-17 08:12:00,
2013-04-17 01:22:00,49.0,36.0,29.41,South,170,11.0,-999.0,60,0.00,,,0.00,,2013-04-17 08:22:00,
2013-04-17 01:32:00,49.0,36.0,29.41,South,170,11.0,-999.0,60,0.00,,,0.00,,2013-04-17 08:32:00,
2013-04-17 01:42:00,49.0,36.0,29.41,South,170,11.0,-999.0,60,0.00,,,0.00,,2013-04-17 08:42:00,
2013-04-17 03:12:00,48.0,34.0,29.44,South,172,9.0,-999.0,57,-99.99,,,0.00,,2013-04-17 10:12:00,
2013-04-17 03:23:00,48.0,34.0,29.44,South,172,9.0,-999.0,57,-99.99,,,0.00,,2013-04-17 10:23:00,
2013-04-17 03:32:00,48.0,34.0,29.44,South,172,9.0,-999.0,57,-99.99,,,0.00,,2013-04-17 10:32:00,
2013-04-17 03:42:00,48.0,34.0,29.44,South,172,9.0,-999.0,57,-99.99,,,0.00,,2013-04-17 10:42:00,
2013-04-17 04:12:00,48.0,32.0,29.44,SSE,152,10.0,-999.0,53,0.00,,,0.00,,2013-04-17 11:12:00,
2013-04-17 04:22:00,48.0,32.0,29.44,SSE,152,10.0,-999.0,53,0.00,,,0.00,,2013-04-17 11:22:00,
2013-04-17 04:32:00,48.0,32.0,29.44,SSE,152,10.0,-999.0,53,0.00,,,0.00,,2013-04-17 11:32:00,
2013-04-17 04:42:00,48.0,32.0,29.44,SSE,152,10.0,-999.0,53,0.00,,,0.00,,2013-04-17 11:42:00,
2013-04-17 05:12:00,47.0,32.0,29.46,SSE,150,10.0,-999.0,57,0.00,,,0.00,,2013-04-17 12:12:00,
2013-04-17 05:22:00,47.0,32.0,29.46,SSE,150,10.0,-999.0,57,0.00,,,0.00,,2013-04-17 12:22:00,
2013-04-17 05:32:00,47.0,32.0,29.46,SSE,150,10.0,-999.0,57,0.00,,,0.00,,2013-04-17 12:32:00,
2013-04-17 05:42:00,47.0,32.0,29.46,SSE,150,10.0,-999.0,57,0.00,,,0.00,,2013-04-17 12:42:00,
2013-04-17 06:12:00,46.0,32.0,29.47,SSE,162,13.0,-999.0,58,0.00,,,0.00,,2013-04-17 13:12:00,
2013-04-17 06:22:00,46.0,32.0,29.47,SSE,162,13.0,-999.0,58,0.00,,,0.00,,2013-04-17 13:22:00,
2013-04-17 06:32:00,46.0,32.0,29.47,SSE,162,13.0,-999.0,58,0.00,,,0.00,,2013-04-17 13:32:00,
2013-04-17 06:42:00,46.0,32.0,29.47,SSE,162,13.0,-999.0,58,0.00,,,0.00,,2013-04-17 13:42:00,
2013-04-17 07:12:00,46.0,31.0,29.51,West,274,5.0,-999.0,56,0.00,,,-99.99,,2013-04-17 14:12:00,
2013-04-17 07:22:00,46.0,31.0,29.51,West,274,5.0,-999.0,56,0.00,,,-99.99,,2013-04-17 14:22:00,
2013-04-17 07:32:00,46.0,31.0,29.51,West,274,5.0,-999.0,56,0.00,,,-99.99,,2013-04-17 14:32:00,
2013-04-17 07:42:00,46.0,31.0,29.51,West,274,5.0,-999.0,56,0.00,,,-99.99,,2013-04-17 14:42:00,
2013-04-17 08:12:00,47.0,32.0,29.54,NNW,328,6.0,-999.0,57,0.00,,,0.00,,2013-04-17 15:12:00,
2013-04-17 08:22:00,47.0,32.0,29.54,NNW,328,6.0,-999.0,57,0.00,,,0.00,,2013-04-17 15:22:00,
2013-04-17 08:33:00,47.0,32.0,29.54,NNW,328,6.0,-999.0,57,0.00,,,0.00,,2013-04-17 15:33:00,
2013-04-17 08:42:00,47.0,32.0,29.54,NNW,328,6.0,-999.0,57,0.00,,,0.00,,2013-04-17 15:42:00,
2013-04-17 09:12:00,53.0,28.0,29.55,SE,138,7.0,-999.0,37,0.00,,,-99.99,,2013-04-17 16:12:00,
2013-04-17 09:22:00,53.0,28.0,29.55,SE,138,7.0,-999.0,37,0.00,,,-99.99,,2013-04-17 16:22:00,
2013-04-17 09:32:00,53.0,28.0,29.55,SE,138,7.0,-999.0,37,0.00,,,-99.99,,2013-04-17 16:32:00,
2013-04-17 09:42:00,53.0,28.0,29.55,SE,138,7.0,-999.0,37,0.00,,,-99.99,,2013-04-17 16:42:00,
2013-04-17 10:12:00,56.0,31.0,29.56,WNW,290,4.0,-999.0,39,0.00,,,0.00,,2013-04-17 17:12:00,
2013-04-17 10:22:00,56.0,31.0,29.56,WNW,290,4.0,-999.0,39,0.00,,,0.00,,2013-04-17 17:22:00,
2013-04-17 10:33:00,56.0,31.0,29.56,WNW,290,4.0,-999.0,39,0.00,,,0.00,,2013-04-17 17:33:00,
2013-04-17 10:42:00,56.0,31.0,29.56,WNW,290,4.0,-999.0,39,0.00,,,0.00,,2013-04-17 17:42:00,
2013-04-17 11:12:00,63.0,29.0,29.57,WNW,302,6.0,-999.0,27,0.00,,,0.00,,2013-04-17 18:12:00,
2013-04-17 11:22:00,63.0,29.0,29.57,WNW,302,6.0,-999.0,27,0.00,,,0.00,,2013-04-17 18:22:00,
2013-04-17 11:32:00,63.0,29.0,29.57,WNW,302,6.0,-999.0,27,0.00,,,0.00,,2013-04-17 18:32:00,
2013-04-17 11:42:00,63.0,29.0,29.57,WNW,302,6.0,-999.0,27,0.00,,,0.00,,2013-04-17 18:42:00,
2013-04-17 12:12:00,62.0,30.0,29.57,West,265,4.0,-999.0,30,0.00,,,0.00,,2013-04-17 19:12:00,
2013-04-17 12:22:00,62.0,30.0,29.57,West,265,4.0,-999.0,30,0.00,,,0.00,,2013-04-17 19:22:00,
2013-04-17 12:32:00,62.0,30.0,29.57,West,265,4.0,-999.0,30,0.00,,,0.00,,2013-04-17 19:32:00,
2013-04-17 13:12:00,65.0,28.0,29.55,North,358,5.0,-999.0,25,0.00,,,0.00,,2013-04-17 20:12:00,
2013-04-17 13:22:00,65.0,28.0,29.55,North,358,5.0,-999.0,25,0.00,,,0.00,,2013-04-17 20:22:00,
2013-04-17 13:32:00,65.0,28.0,29.55,North,358,5.0,-999.0,25,0.00,,,0.00,,2013-04-17 20:32:00,
2013-04-17 13:42:00,65.0,28.0,29.55,North,358,5.0,-999.0,25,0.00,,,0.00,,2013-04-17 20:42:00,
2013-04-17 14:12:00,67.0,29.0,29.54,SSW,197,5.0,-999.0,24,0.01,,,0.01,,2013-04-17 21:12:00,
2013-04-17 14:22:00,67.0,29.0,29.54,SSW,197,5.0,-999.0,24,0.01,,,0.01,,2013-04-17 21:22:00,
2013-04-17 14:32:00,67.0,29.0,29.54,SSW,197,5.0,-999.0,24,0.01,,,0.01,,2013-04-17 21:32:00,
2013-04-17 14:42:00,67.0,29.0,29.54,SSW,197,5.0,-999.0,24,0.01,,,0.01,,2013-04-17 21:42:00,
2013-04-17 15:12:00,69.0,28.0,29.52,NW,318,6.0,-999.0,22,0.00,,,0.00,,2013-04-17 22:12:00,
2013-04-17 15:22:00,69.0,28.0,29.52,NW,318,6.0,-999.0,22,0.00,,,0.00,,2013-04-17 22:22:00,
2013-04-17 15:33:00,69.0,28.0,29.52,NW,318,6.0,-999.0,22,0.00,,,0.00,,2013-04-17 22:33:00,
2013-04-17 15:42:00,69.0,28.0,29.52,NW,318,6.0,-999.0,22,0.00,,,0.00,,2013-04-17 22:42:00,
2013-04-17 16:12:00,70.0,26.0,29.50,West,260,5.0,-999.0,19,0.00,,,0.00,,2013-04-17 23:12:00,
2013-04-17 16:22:00,70.0,26.0,29.50,West,260,5.0,-999.0,19,0.00,,,0.00,,2013-04-17 23:22:00,
2013-04-17 16:32:00,70.0,26.0,29.50,West,260,5.0,-999.0,19,0.00,,,0.00,,2013-04-17 23:32:00,
2013-04-17 16:42:00,70.0,26.0,29.50,West,260,5.0,-999.0,19,0.00,,,0.00,,2013-04-17 23:42:00,
2013-04-17 17:12:00,69.0,22.0,29.50,West,259,5.0,-999.0,17,0.00,,,0.00,,2013-04-18 00:12:00,
2013-04-17 18:12:00,69.0,24.0,29.49,West,261,5.0,-999.0,18,0.00,,,0.00,,2013-04-18 01:12:00,
2013-04-17 18:22:00,69.0,24.0,29.49,West,261,5.0,-999.0,18,0.00,,,0.00,,2013-04-18 01:22:00,
2013-04-17 18:32:00,69.0,24.0,29.49,West,261,5.0,-999.0,18,0.00,,,0.00,,2013-04-18 01:32:00,
2013-04-17 18:42:00,69.0,24.0,29.49,West,261,5.0,-999.0,18,0.00,,,0.00,,2013-04-18 01:42:00,
2013-04-17 19:12:00,68.0,23.0,29.50,West,275,5.0,-999.0,18,0.00,,,-99.99,,2013-04-18 02:12:00,
2013-04-17 19:22:00,68.0,23.0,29.50,West,275,5.0,-999.0,18,0.00,,,-99.99,,2013-04-18 02:22:00,
2013-04-17 19:32:00,68.0,23.0,29.50,West,275,5.0,-999.0,18,0.00,,,-99.99,,2013-04-18 02:32:00,
2013-04-17 19:42:00,68.0,23.0,29.50,West,275,5.0,-999.0,18,0.00,,,-99.99,,2013-04-18 02:42:00,
2013-04-17 20:12:00,63.0,23.0,29.52,South,179,2.0,-999.0,22,0.00,,,0.01,,2013-04-18 03:12:00,
2013-04-17 20:22:00,63.0,23.0,29.52,South,179,2.0,-999.0,22,0.00,,,0.01,,2013-04-18 03:22:00,
2013-04-17 20:33:00,63.0,23.0,29.52,South,179,2.0,-999.0,22,0.00,,,0.01,,2013-04-18 03:33:00,
2013-04-17 21:13:00,60.0,27.0,29.55,North,-999,-999.0,-999.0,28,0.00,,,0.01,,2013-04-18 04:13:00,
2013-04-17 21:23:00,60.0,27.0,29.55,North,-999,-999.0,-999.0,28,0.00,,,0.01,,2013-04-18 04:23:00,
2013-04-17 21:33:00,60.0,27.0,29.55,North,-999,-999.0,-999.0,28,0.00,,,0.01,,2013-04-18 04:33:00,
2013-04-17 21:43:00,60.0,27.0,29.55,North,-999,-999.0,-999.0,28,0.00,,,0.01,,2013-04-18 04:43:00,
2013-04-17 22:12:00,57.0,28.0,29.57,North,349,4.0,-999.0,33,0.00,,,0.01,,2013-04-18 05:12:00,
2013-04-17 22:22:00,57.0,28.0,29.57,North,349,4.0,-999.0,33,0.00,,,0.01,,2013-04-18 05:22:00,
2013-04-17 22:32:00,57.0,28.0,29.57,North,349,4.0,-999.0,33,0.00,,,0.01,,2013-04-18 05:32:00,
2013-04-17 22:42:00,57.0,28.0,29.57,North,349,4.0,-999.0,33,0.00,,,0.01,,2013-04-18 05:42:00,
2013-04-17 23:12:00,56.0,32.0,29.58,SSE,150,5.0,-999.0,39,-99.99,,,0.00,,2013-04-18 06:12:00,
2013-04-17 23:22:00,56.0,32.0,29.58,SSE,150,5.0,-999.0,39,-99.99,,,0.00,,2013-04-18 06:22:00,
2013-04-17 23:32:00,56.0,32.0,29.58,SSE,150,5.0,-999.0,39,-99.99,,,0.00,,2013-04-18 06:32:00,
2013-04-17 23:42:00,56.0,32.0,29.58,SSE,150,5.0,-999.0,39,-99.99,,,0.00,,2013-04-18 06:42:00,